Regional Weather Roundup
Issued by NWS Wakefield, VA

Home | Current Version | Previous Version | Text Only | Print | Product List | Glossary Off
Versions: 1 2 3 4 5 6 7 8 9 10 11 12 13 14 15 16 17 18 19 20 21 22 23 24 25 26 27 28 29 30 31 32 33 34 35 36 37 38 39 40 41 42 43 44 45 46 47 48 49 50

986
ASUS41 KAKQ 241915
RWRAKQ

REGIONAL WEATHER ROUNDUP
NATIONAL WEATHER SERVICE WAKEFIELD VA
300 PM EDT FRI MAR 24 2017

Note: "fair" indicates few or no clouds below 12,000 feet with no
significant weather and/or obstructions to visibility. * = Denotes
station may not report precipitation (e.g., rain,snow,etc.),
thunder or fog.

VAZ042-051-052>054-056-242000-
NORTHERN VIRGINIA

CITY           SKY/WX    TMP DP  RH WIND       PRES   REMARKS
WASH NATIONAL  CLOUDY    55  35  47 S15       30.29F
DULLES         PTSUNNY   54  35  48 S17G23    30.26F
FORT BELVOIR   PTSUNNY   56  32  40 S9G18     30.28F
QUANTICO       CLOUDY    59  33  37 W15G29    30.31F
FREDERICKSBRG* MOSUNNY   58  35  42 SW15G24   30.30F
STAFFORD*      CLOUDY    57  33  40 S16       30.34F
WARRENTON      CLOUDY    56  31  37 SW14G23   30.28F
CULPEPER*      MOSUNNY   58  37  45 SW12G17   30.29F
MANASSAS*      MOSUNNY   58  36  43 SW13G18   30.28F
LEESBURG*      MOSUNNY   55  41  58 S13       30.26F
WINCHESTER     SUNNY     61  37  41 SW9       30.20F
FRONT ROYAL*     N/A    N/A N/A N/A MISG        N/A
LURAY*         CLOUDY    63  37  39 SW14      30.23F
$$

VAZ048-049-060>072-079>083-242000-
CENTRAL AND SOUTH CENTRAL VIRGINIA

CITY           SKY/WX    TMP DP  RH WIND       PRES   REMARKS
RICHMOND       PTSUNNY   66  36  32 SW20G28   30.33F
CHESTERFIELD*  FAIR      66  34  30 SW15G23   30.35F
PETERSBURG*    SUNNY     68  38  33 SW14G25   30.35F
HANOVER        MOSUNNY   66  35  31 SW18G26   30.33F
TAPPAHANNOCK*  SUNNY     64  14  14 SW14G21   30.33F
QUINTON*       FAIR      65  35  32 S8G16     30.33F
CHARLOTTSVILLE MOSUNNY   65  35  33 SW8G20    30.28F
GORDONSVILLE*  CLEAR     60  35  39 SW17G24   30.29F
ORANGE*        SUNNY     57  34  41 S14G21    30.30F
LOUISA*        CLOUDY    57  37  47 S6        30.30F
BUMPASS*       CLOUDY    55  33  43 SW9G20    30.32F
FARMVILLE*     CLOUDY    65  44  47 SW15G23   30.32F
CREWE*         CLOUDY    65  44  45 SW9G21    30.34F
FORT PICKETT*  CLOUDY    67  35  29 SW17G30   30.34F
CHASE CITY*    FAIR      67  43  40 SW10G17   30.36F
CLARKSVILLE*   FAIR      66  45  45 SW17G32   30.37F
SOUTH HILL*    SUNNY     66  46  48 SW13G24   30.43F
LAWRENCEVILLE* FAIR      67  44  42 MISG      30.36F
EMPORIA*       PTSUNNY   68  43  40 SW14G20   30.39F
$$

VAZ088>098-242000-
SOUTHEAST VIRGINIA

CITY           SKY/WX    TMP DP  RH WIND       PRES   REMARKS
NORFOLK        CLOUDY    66  35  31 SW22      30.36F
VIRGINIA BEACH PTSUNNY   65  35  33 SW15G23   30.36F
NORFOLK NAVAL  PTSUNNY   65  34  31 SW14G21   30.36F
WEST POINT*    MOSUNNY   65  32  28 SW18      30.35F
SALUDA*        CLOUDY    63  35  34 S14G21    30.33F
NEWPORT NEWS   CLOUDY    65  36  34 SW17G24   30.35F
LANGLEY AFB    CLOUDY    64  37  36 SW16G23   30.35F
FORT EUSTIS    PTSUNNY   65  39  38 SW12      30.33F
WILLIAMSBURG*  MOSUNNY   68  39  34 W20G25    30.36F
HR EXEC AP*    FAIR      70  39  32 SW15G24   30.35F
FRANKLIN*      SUNNY     67  41  39 SW10G18   30.38F
US460-WAKEFLD  MOSUNNY   65  40  39 SW14G23   30.36F
$$

VAZ020-022-025-037-045-242000-
WEST CENTRAL AND SOUTHWEST VIRGINIA

CITY           SKY/WX    TMP DP  RH WIND       PRES   REMARKS
STAUNTON*      PTSUNNY   65  37  36 SW20      30.26F
WAYNESBORO*    CLOUDY    66  40  38 W8G18     30.27F
HOT SPRINGS VA SUNNY     63  34  34 W12G18    30.31F
LYNCHBURG      MOSUNNY   65  41  41 SW12G20   30.34F
DANVILLE       SUNNY     66  46  48 SW16G25   30.36F
SOUTH BOSTON*  FAIR      69  44  40 S16G24    30.36F
MARTINSVILLE   SUNNY     66  42  42 SW8       30.38F
ROANOKE        MOSUNNY   66  37  34 SE6       30.33F
BLACKSBURG     SUNNY     66  42  41 S7        30.35F
DUBLIN*        PTSUNNY   67  42  39 S10       30.34F
MARION*        PTSUNNY   69  46  42 W15G22    30.35F
HILLSVILLE*    MOSUNNY   62  45  53 S3G16     30.35F
RICHLANDS*     CLOUDY    64  44  49 CALM      30.34F
WISE*          CLOUDY    66  43  42 W10G18    30.35F
ABINGDON*      PTSUNNY   71  46  39 W9        30.34F
$$

MDZ021>025-VAZ099-100-242000-
SOUTHERN MARYLAND AND THE DELMARVA PENINSULA

CITY           SKY/WX    TMP DP  RH WIND       PRES   REMARKS
PATUXENT RIVER SUNNY     59  34  39 SW17G23   30.31F
BAY BRIDGE APT MOSUNNY   54  30  40 S14G21    30.30F
LEONARDTOWN    SUNNY     55  28  35 SW14G24   30.32F
DOVER          CLOUDY    57  35  42 S22G32    30.27F
GEORGETOWN     LGT RAIN  63  28  26 SW14G31   30.30F
EASTON         CLOUDY    57  28  33 SW17G29   30.34F
CAMBRIDGE      SUNNY     57  28  33 S9G20     30.32F
SALISBURY      SUNNY     62  28  27 SW18      30.31F
OCEAN CITY     SUNNY     51  39  63 S13G20    30.35F
WALLOPS ISLAND SUNNY     54  40  59 S20       30.37F
ACCOMACK*      MOSUNNY   58  41  53 S15G23    30.35F
$$

NCZ012>017-030>032-242000-
NORTH CENTRAL AND EASTERN NORTH CAROLINA

CITY           SKY/WX    TMP DP  RH WIND       PRES   REMARKS
ROANOKE RAPIDS FAIR      68  46  45 SW17G24   30.39F
RALEIGH        PTSUNNY   68  45  43 SW16      30.41F
ELIZABETH CITY SUNNY     67  42  40 S12G21    30.40F
AHOSKIE*         N/A     69  46  45 SW6       30.40F
EDENTON*       SUNNY     70  44  39 SW9       30.41F
CURRITUCK*     SUNNY     66  40  38 SW9G22    30.40F
KILL DEVIL HLS NOT AVBL
MANTEO         SUNNY     64  46  50 SW9       30.42F
CAPE HATTERAS  MOSUNNY   66  51  58 SW9       30.46F
TARBORO*       NOT AVBL
GOLDSBORO      MOSUNNY   72  43  35 SW12      30.40F
WASHINGTON     MOSUNNY   70  44  39 SW16      30.41F
GREENVILLE     MOSUNNY   72  45  37 W13G20    30.41F
NEW BERN       PTSUNNY   70  45  40 S13       30.43F
WILMINGTON     SUNNY     70  49  47 S13G20    30.44F
$$

VAZ048-242000-
ELSEWHERE

CITY           SKY/WX    TMP DP  RH WIND       PRES   REMARKS
HARRISBURG PA  CLOUDY    54  39  57 VRB7      30.21F
BALTIMORE      CLOUDY    55  33  43 S14G23    30.26F
ANNAPOLIS      MOSUNNY   53  34  48 S12       30.29F
ANDREWS AFB    PTSUNNY   57  32  38 SW12      30.27F
PHILADELPHIA   PTSUNNY   56  30  37 SW20      30.27F
HENDERSON NC   MOSUNNY   64  44  47 SW18G25   30.39F
GREENSBORO     MOSUNNY   65  46  50 SW22G29   30.38F
ROCKY MOUNT    CLOUDY    68  47  46 SW16      30.41F
$$

VAZ100-242000-
MARINE

STATION/POSITION TIME  TEMP    WIND        PRES    WAVE   SWELL
                       AIR SEA DIR/SP/G            HT/PER HT/PER
                 (UTC) (F)     (DEG/KT/KT) (MB)    (FT/S) (FT/S)
CAPE MAY NJ      1848   51 43  170/ 12/ 16 1025.8F
LEWES DE         1848   61 42  220/  7/ 16 1025.8F
OCEAN-CITY-INLET 1848   45 44  210/ 16/ 19 1028.0F
WACHAPREAGUE VA  1848   52 48  190/ 13/ 16 1028.0F
THOMAS POINT MD  1900   45 44  170/ 17/ 19   N/A
GOOSES REEF MD   1900   46 44  170/ 14/ 16 1027.0    1/ 2
COVE POINT MD    1848   45     180/ 15/ 16 1027.2F
SOLOMONS ISLAND  1848   55 45  210/ 14/ 19   N/A
BISHOPS HEAD MD  1848   47 45  150/ 12/ 15 1027.1F
PINEY POINT MD   1848          250/  6/  9   N/A
POTOMAC MD       1900   49 45  180/  4/  6 1025.9    2/ 3
CAMBRIDGE MD     1848   55 44  190/  7/ 13 1025.8F
LEWISETTA VA     1848   59 47  240/ 13/ 17 1026.2F
RAPPAHANNOCK LGT 1848          170/ 17/ 18 1028.1F
STINGRAY PT      1900   48 47  190/ 12/ 14 1027.4    2/ 3
YORK RVR RNG VA  1848   56     220/ 10/ 13 1027.1F
YORKTOWN VA      1848   63 48  220/ 17/ 23 1027.1F
JAMESTOWN VA     1900   62 51  230/ 16/ 19   N/A     1
DOMINION TERM VA 1848   59     220/ 12/ 14 1028.2F
KIPTOPEKE VA     1848      48  170/ 11/ 14   N/A
CHES BAY BRIDGE  1848   60 48  240/ 15/ 17 1027.8F
CAPE HENRY VA    1848   63     210/  9/ 14   N/A
WILLOUBY STN VA  1848   59     240/ 12/ 14 1028.7F
S CRANEY ISL VA  1848   64     240/ 13/ 18 1028.1F
CAPE HENRY BUOY  1842      47                N/A     3/ 7
CAPE CHARLES BUO 1851      47                N/A     3/ 3
OFFSHORE WE BUOY 1851      46                N/A     3/10   2/11
64NM E OF VA BCH 1850   52 52  210/ 10/ 12 1029.9F   3/ 9   2/ 9
DUCK PIER NC     1848   60 47  260/  7/ 10 1029.4F
44100 DUCK FRF   1835      49                N/A     3/ 9   2/11
44056 DUCK FRF   1830      51                N/A     2/ 9
OREGON INLET NC  1842   58 50  180/ 14/ 15 1030.4F
HATTERAS NC      1848   63 53  210/  9/ 12 1030.9F
DIAMOND SHLS NC  1850   64 75  200/ 12/ 17 1031.6F   4/10   3/10
CAPE LOOKOUT NC  1900   66     190/ 12/ 13 1031.2F
$$




USA.gov is the U.S. government's official web portal to all federal, state and local government web resources and services.